1st Responders/1st Detectors/Storm Spotters Weather Summary for Hopkins County, KY

Forecast Maps


Reg. NEXRAD Animation


National Fire Danger: Day 1 & 2 Map

Current NWS Watch/Warnings

SPC Convective Day 1 Outlook


Day 2 Outlook

(Click images to enlarge|Page will refresh every 5 minutes)
UK Ag. Weather Center Desktop Severe Weather Service[HERE]
Hopkins County, KY Hazardous Weather Outlook Webcast
(9 AM to 9 PM Mon-Fri)
[Fast]
[Dial-up]


UKAWC 1st Detectors/1st Responders Precision Weather Forecast For HOPKINS County, Kentucky
(based on the NWS County Digital Forecast)

ISSUED AT 20:00 UTC ON FRIDAY NOV 22 2019
DAY FRIDAY
CDT 3HR 4P 5P 6P
MAX/MIN -- -- 47°
TEMP 45° 45° 45°
SKY COVER 82% 85% 88%
Clouds
DEW PT 40° 38° 38°
RH 82% 76% 79%
POP 12HR -- -- --
RAIN/SNOW (liq.equ) -- -- --
SNOWFALL -- -- --
WIND SPEED(MPH) 7 7 6
WIND Gust(MPH) 8 8 7
WIND DIR NE NE NE
DEW Mod Dew Lgt Dew Lgt Dew
HeatIndex 41 45 41
Snow -- -- --
Rain -- -- --
WIND CHILL 41° 41° 42°
SPRAY COND
DRY COND
LIVESTOCK COLDSTRESS



DAY SATURDAY SUNDAY MONDAY TUESDAY WEDNESDAY THURSDAY
CDT 6HR 7P 8P 9P 10P 11P MIDN 1A 2A 3A 4A 5A 6A 7A 8A 9A 10A 11A NOON 1P 2P 3P 4P 5P 6P 7P 8P 9P 10P 11P MIDN 1A 2A 3A 4A 7A 10A 1P 4P 7P 1A 7A 1P 7P 1A 7A 1P 7P 1A 7A 1P 7P 1A 7A 1P 7P
MAX/MIN -- -- -- -- -- -- -- -- -- -- -- -- 40° -- -- -- -- -- -- -- -- -- -- 43° -- -- -- -- -- -- -- -- -- -- 31° -- -- 50° -- -- 34° 58° -- -- 43° 61° -- -- 36° 52° -- -- 34° 50° --
TEMP 43° 43° 43° 43° 43° 43° 43° 43° 43° 43° 43° 43° 43° 41° 41° 41° 41° 41° 40° 41° 40° 40° 40° 40° 40° 38° 38° 36° 36° 36° 36° 34° 34° 34° 31° 40° 47° 49° 43° 38° 36° 54° 49° 45° 43° 56° 54° 43° 36° 49° 43° 38° 34° 47° 43°
SKY COVER 87% 86% 85% 84% 96% 96% 99% 91% 98% 98% 99% 99% 100% 100% 99% 99% 99% 99% 99% 99% 99% 99% 96% 94% 91% 91% 91% 91% 72% 53% 34% 32% 29% 27% 18% 17% 9% 21% 12% 31% 36% 21% 23% 56% 75% 77% 74% 69% 46% 42% 48% 68% 77% 85% 90%
Clouds
DEW PT 40° 40° 40° 40° 40° 40° 40° 40° 40° 40° 40° 40° 40° 40° 40° 40° 40° 40° 40° 40° 38° 38° 38° 36° 36° 36° 36° 36° 36° 34° 34° 32° 31° 31° 31° 34° 34° 34° 36° 36° 36° 40° 41° 43° 43° 49° 49° 41° 36° 34° 36° 36° 34° 36° 40°
RH 85% 85% 86% 85% 89% 88% 85% 89% 89% 92% 92% 92% 92% 96% 95% 95% 95% 92% 96% 92% 89% 88% 88% 89% 88% 92% 95% 100% 95% 96% 92% 92% 89% 91% 95% 82% 60% 56% 75% 96% 95% 61% 76% 93% 95% 74% 83% 92% 95% 54% 79% 96% 99% 63% 88%
POP 12HR 94% -- -- -- -- -- -- -- -- -- -- -- 80% -- -- -- -- -- -- -- -- -- -- -- 80% -- -- -- -- -- -- -- -- -- 1% -- -- -- 1% -- 0% -- 3% -- 21% -- 51% -- 43% -- 14% -- 18% -- 44%
RAIN/SNOW (liq.equ) 0.00in -- -- -- -- -- 0.00in -- -- -- -- -- 0.08in -- -- -- -- -- 0.11in -- -- -- -- -- 0.00in -- -- -- -- -- 0.00in -- -- -- 0.00in -- 0.00in -- 0.00in 0.00in 0.00in -- -- -- -- -- -- -- -- -- -- -- -- -- --
SNOWFALL 0in -- -- -- -- -- 0in -- -- -- -- -- 0in -- -- -- -- -- 0in -- -- -- -- -- 0in -- -- -- -- -- 0in -- -- -- 0in -- 0in -- 0in 0in 0in -- -- -- -- -- -- -- -- -- -- -- -- -- --
WIND SPEED(MPH) 6 7 7 7 7 7 6 6 6 6 5 6 5 5 6 6 7 7 8 8 9 8 8 7 7 7 7 7 6 6 5 5 5 5 2 5 7 7 2 2 5 7 6 5 6 10 10 7 6 5 1 1 2 6 2
WIND DIR NE NE NE NE NE NE NE NE E NE NE N N N N N NW NW NW NW NW NW NW NW NW NW W W W W W W W W SW SW W SW SW SW SW SW S S S S S W W N N E E E E
HeatIndex 40 40 40 39 38 40 40 39 39 39 40 39 40 39 38 38 37 36 35 36 34 35 35 34 34 33 32 31 32 31 32 31 31 29 28 36 47 49 41 35 33 54 49 42 40 56 54 39 32 49 43 38 32 47 41
Snow -- -- -- -- -- -- -- -- -- -- -- -- -- -- -- -- -- -- -- -- -- -- -- -- -- -- -- -- -- -- -- -- -- -- -- -- -- -- -- -- -- -- -- -- -- -- -- -- -- -- -- -- Chance -- --
Rain -- -- -- -- -- -- Slight Chance Chance Chance Likely Likely Definite Likely Definite Definite Definite Likely Likely Likely Chance Chance Chance Slight Chance Slight Chance -- -- -- -- -- -- -- -- -- -- -- -- -- -- -- -- -- -- -- Slight Chance Chance Chance Chance Chance -- -- Slight Chance Slight Chance Chance Chance Chance
WIND CHILL 39° 39° 39° 39° 39° 39° 39° 39° 39° 39° 40° 39° 40° 38° 37° 37° 36° 36° 35° 36° 34° 35° 35° 35° 35° 33° 33° 30° 31° 31° 32° 30° 30° 30° -- 37° -- -- -- -- 32° -- -- 43° 39° -- -- 39° 31° -- -- -- -- -- --
SPRAY COND
DRY COND
LIVESTOCK COLDSTRESS

Click on individual weather variable above in left-hand column (ie., TEMP, RH, QPF 12HR) to view state forecast maps






NWS 48 Hr. Forecast Maps,

Regional Hourly Observations For HOPKINS County, Kentucky
Issued at 400 PM EST FRI NOV 22 2019
WESTERN AND SOUTH CENTRAL KENTUCKY
  
CITY           SKY/WX    TMP DP  RH WIND       PRES   REMARKS
PADUCAH        CLOUDY    44  37  76 NE9       30.06F                  
HENDERSON      CLOUDY    44  36  73 N9        30.11F                  
OWENSBORO      PTSUNNY   46  38  73 NE7       30.10F                  
HOPKINSVILLE   NOT AVBL                                               
BOWLING GREEN  CLOUDY    48  41  76 NE13      30.07F                  
GLASGOW        CLOUDY    46  42  87 N7        30.07F                  


Current NOWCAST not available:
Nowcasts are not issued routinely during fair weather. Only when
precipitation or other significant weather is occuring in this county will these
forecasts be issued. Currently, there is no short term forecast in effect.


Fire Weather Forecast For HOPKINS County, KY
Provided by the National Weather Service:

Issued at: Fri Nov 22 16:05:01 EST 2019

Precip Type           Rain         Rain         Rain         
Chance Precip (%)     100          90           80           
High Temperature(F)   46-50                     42-46        
Minimum RH(%)         69-74                     71-76        
Low Temperature(F)                 38-42                     
Maximum RH(%)                      95-100                    
Temp (24h Trend)      49 (-11)     39 (-5)      46           
RH % (24h Trend)      72 (+22)     99 (-1)      74           
20FTWND-AM(MPH)       N 8-12 G20                N 5-9        
20FTWND-PM(MPH)       NE 6-10 G18  NE 5-9 G17   NW 7-11 G20  
Precip Amount         0.18         0.11         0.08         
Precip Duration       3            4            4            
Precip Begin          6 AM         6 PM         Continuing   
Precip End            12 PM        Continuing   4 PM         
1700'Mix Hgt Temp     47                        45           
Mixing Hgt(FT-AGL)    2934                      1863         
Transport Wind (KTS)  NE 14                     N 20         
Transport Wind (M/S)  NE  7                     N 10         
Vent Rate (M/S-M)     6454                      5854         
Dispersion Index      Fair to Good              Fair         
LAL                   1            1            1            
Haines Index          3            2            2            
Stability(DSI)        STBL         N/A          STBL         

Remarks...None.

.Forecast for days 3 through 7...

.SATURDAY NIGHT...Mostly cloudy. Lows in the lower 30s. West
winds 5 to 10 mph. 
.SUNDAY...Sunny. Highs in the lower 50s. West winds 5 to 10 mph. 
.SUNDAY NIGHT...Partly cloudy. Lows in the mid 30s. Southwest
winds around 5 mph. 
.MONDAY...Sunny. Highs in the upper 50s. Southwest winds 5 to
15 mph. 
.MONDAY NIGHT...Mostly cloudy with a 20 percent chance of rain.
Lows in the lower 40s. South winds 5 to 10 mph. 
.TUESDAY...Mostly cloudy with a 50 percent chance of rain. Highs
in the lower 60s. South winds 5 to 15 mph with gusts to around
35 mph. 
.TUESDAY NIGHT...Mostly cloudy with a 50 percent chance of rain.
Lows in the upper 30s. Southwest winds 5 to 15 mph shifting to
the west 5 to 10 mph after midnight. Gusts up to 40 mph. 
.WEDNESDAY...Mostly sunny. Highs in the lower 50s. North winds
5 to 10 mph. 
.WEDNESDAY NIGHT...Mostly cloudy with a 20 percent chance of
rain. Lows in the mid 30s. Northeast winds around 5 mph. 
.THANKSGIVING DAY...Mostly cloudy with a 50 percent chance of
rain. Highs in the lower 50s. East winds 5 to 10 mph. 

SPC's Fire Weather Web Tool (Excellent!), SPC's Fire Weather Outlooks, NWS Fire Weather WEB, Fire Danger Class Map,
Keetch-Byram Drought Index, ROMAN Web, Haines Index ,
WFAS's 10-hr Dead Fuel Moist., WFAS's 100-hr Dead Fuel Moist., Probablity of Ignition, Visual blackness Map, Palmer Drought Index, HPC's Rainfall Forecast Maps


Hazardous Weather Outlook For HOPKINS County, Kentucky
251 PM CST Fri Nov 22 2019

 DAY ONE  This Afternoon and Tonight

No hazardous weather is expected at this time.

 DAYS TWO THROUGH SEVEN  Saturday through Thursday

No hazardous weather is expected at this time.

 SPOTTER INFORMATION STATEMENT  

Spotter activation will not be needed.

Latest HOPKINS County, Kentucky Watches, Warnings and Advisories.
Additional Drought Info.: UKAWC Drought Page, Kentucky Drought Watch


7-Day Forecast For HOPKINS County, KY

TONIGHT
Cloudy. Rain likely after midnight. Lows in the lower 40s. Northeast winds around 5 mph. Chance of precipitation 70 percent.

SATURDAY
Rain in the morning, then a chance of rain in the afternoon. Highs in the lower 40s. Northwest winds 5 to 10 mph. Chance of precipitation 80 percent.

SATURDAY NIGHT
Mostly cloudy in the evening then clearing. Lows in the lower 30s. West winds around 5 mph.

SUNDAY
Mostly sunny. Highs in the lower 50s. Southwest winds 5 to 10 mph.

SUNDAY NIGHT
Mostly clear. Lows in the mid 30s. Southwest winds 5 mph.

MONDAY
Mostly sunny. Highs in the upper 50s.

MONDAY NIGHT
Partly cloudy. A 40 percent chance of rain after midnight. Lows in the lower 40s.

TUESDAY
Mostly cloudy. A chance of rain in the morning, then rain likely in the afternoon. Highs in the lower 60s. Chance of precipitation 60 percent.

TUESDAY NIGHT
Mostly cloudy with a 50 percent chance of rain. Lows around 40.

WEDNESDAY
Partly sunny with a 30 percent chance of rain. Highs in the mid 50s.

WEDNESDAY NIGHT
Mostly cloudy with a 20 percent chance of rain. Lows in the upper 30s.

THANKSGIVING DAY
Mostly cloudy with a 30 percent chance of rain. Highs in the lower 50s.

THURSDAY NIGHT
Mostly cloudy with a 40 percent chance of rain. Lows in the upper 30s.

FRIDAY
Mostly cloudy with a 50 percent chance of rain. Highs in the mid 50s.

Ag Weather Center, Department of Biosystems & Agricultural Engineering, University of Kentucky